Location: Grasslands National Park East Block
(49.0708°N, 106.5295°W)
Time: 18:13:03
(UTC-06:00)

Max Valier Satellite - Pass Details

Date: 24 September 2019
Orbit: 490 x 508 km, 97.3° (Epoch: 20 October)

Event Time Altitude Azimuth Distance (km) Brightness Sun altitude
Exits shadow 21:38:58 28° 3° (N) 981 ? -25.6°
Drops below altitude 10° 21:40:53 10° 354° (N) 1,737 ? -25.9°
Sets 21:43:00 0° 351° (N) 2,627 ? -26.2°
